Theta_e
309 316 318 318 323 324 323 322 320 316 313 310 307 305 304 300 299 299 298 297 296 294 295 295 293 294 293 294 294 293 292 292 290 291 291 291 290 290 291 292 292 291 291
306 307 309 315 312 313 313 312 309 308 306 305 301 300 299 298 297 297 294 294 293 293 293 292 291 291 292 292 292 291 290 290 289 286 288 289 289 290 290 289 289 290 291
303 305 306 307 310 309 305 305 304 301 299 297 297 296 295 295 294 294 293 292 292 292 291 291 290 291 290 290 289 289 289 288 289 287 287 289 289 290 289 289 288 289 289
301 302 303 304 306 306 301 300 299 298 295 295 294 293 293 292 292 291 291 290 290 289 290 290 290 289 289 288 287 288 287 288 287 287 287 287 288 288 287 285 284 287 287
300 299 298 299 300 298 296 295 293 295 293 291 291 291 290 290 289 289 289 289 288 288 288 288 288 287 287 288 288 287 287 287 286 286 285 286 285 284 283 284 283 285 286
298 296 292 293 292 292 291 289 290 289 288 289 289 289 289 286 290 290 289 288 287 286 285 286 286 285 286 287 287 287 287 286 285 284 284 283 283 284 284 284 283 281 280
296 292 290 290 289 289 289 288 287 287 288 287 289 289 288 288 290 289 288 287 286 286 285 285 284 285 286 286 286 286 286 286 286 285 283 283 283 285 285 284 283 281 281
293 291 289 289 287 287 287 286 286 286 286 287 287 289 289 289 289 288 287 286 286 286 286 286 285 285 286 285 286 285 285 286 286 285 286 286 286 287 287 285 285 284 284
290 290 288 288 286 286 286 285 285 286 286 287 287 287 287 288 289 288 286 285 284 284 285 285 285 285 285 286 286 284 285 286 287 287 288 288 288 287 287 286 283 281 280
290 289 289 288 287 286 286 285 286 286 285 285 285 287 287 287 288 288 286 285 284 284 284 285 283 284 285 286 286 284 282 283 285 285 286 286 287 287 286 285 284 280 280
289 288 287 287 287 287 286 285 285 284 284 284 284 285 286 287 287 288 287 285 285 284 284 283 284 285 285 286 286 285 284 285 284 283 283 283 283 283 284 285 285 282 280
287 286 286 286 286 285 285 284 285 284 283 283 283 283 284 284 286 288 287 286 286 285 284 284 284 284 285 286 286 287 286 286 283 281 281 280 280 281 282 282 283 283 283
286 285 285 285 285 285 285 284 284 284 284 283 282 282 281 281 284 287 288 287 286 284 284 283 284 284 285 286 285 285 284 282 281 279 279 280 280 280 281 281 282 281 281
286 285 285 285 284 284 285 284 284 284 283 282 282 282 282 281 281 283 285 286 285 285 283 284 284 284 284 284 280 281 281 280 279 278 278 279 279 279 278 279 278 278 277
285 284 284 285 284 283 284 284 284 285 285 283 283 284 282 280 281 283 284 283 283 284 281 280 280 280 281 280 279 278 278 277 276 277 276 276 276 276 276 277 276 276 275
284 284 284 284 284 283 282 281 282 283 284 285 285 285 284 281 285 284 284 283 283 282 279 279 279 278 278 278 277 276 275 274 275 274 274 273 273 273 273 274 274 274 273
285 284 284 283 283 282 281 281 279 279 281 283 283 283 283 282 283 284 284 284 283 283 278 277 277 276 276 275 274 273 273 273 272 270 271 271 271 271 270 272 272 272 272
285 284 283 283 282 282 281 282 282 281 279 279 282 282 283 282 282 283 284 284 281 282 276 276 274 274 273 273 272 271 271 270 269 270 269 269 269 269 269 270 270 270 270
284 283 283 283 283 282 281 281 282 281 281 280 275 279 282 283 282 283 284 281 277 276 273 272 272 272 271 270 270 269 269 269 268 268 267 267 267 268 268 268 268 267 267
282 281 282 282 281 280 279 279 279 279 279 279 276 278 276 278 280 280 281 281 277 276 275 272 270 269 269 268 268 267 267 265 265 265 266 266 266 267 266 266 266 267 267
279 278 278 280 278 279 278 278 278 278 277 276 276 277 275 276 277 278 279 277 274 274 272 269 269 268 267 266 266 266 265 266 266 265 265 265 265 264 265 266 266 265 266
275 275 274 275 276 275 276 276 276 275 275 274 275 272 276 274 274 275 275 274 272 271 271 269 268 267 266 265 265 265 264 264 265 264 264 263 263 263 263 264 264 264 264
271 272 271 271 271 271 271 272 272 272 273 273 273 271 270 273 274 271 271 271 270 267 267 265 266 265 265 264 265 265 264 264 264 264 263 263 263 263 263 263 263 262 263
269 269 270 270 269 269 270 271 271 269 271 271 271 270 270 270 271 270 270 270 268 267 265 263 263 263 264 264 263 263 262 263 264 263 262 262 262 262 261 261 261 261 261
267 267 267 268 268 268 269 269 269 269 270 269 269 269 269 268 268 269 268 268 266 265 264 263 263 262 262 262 263 263 262 262 261 261 261 260 260 261 260 260 260 261 261
264 264 264 264 265 265 265 266 266 267 266 267 267 267 267 267 267 267 266 265 265 264 264 264 263 262 262 262 262 262 261 262 260 260 260 260 260 260 260 259 259 259 260
Wind_Speed
13 12 9 6 10 11 10 10 10 11 12 12 12 12 12 10 9 8 9 10 10 9 7 8 8 7 5 5 4 4 3 1 2 1 2 4 6 7 7 9 8 9 8
8 11 12 10 5 7 7 8 9 10 10 13 11 11 12 11 11 11 12 10 11 11 9 9 8 6 7 5 4 5 4 3 1 2 3 3 5 7 9 9 8 8 10
8 9 10 11 10 8 7 8 9 11 11 11 12 12 13 11 12 11 11 11 11 10 9 9 9 8 7 5 4 5 3 2 1 1 3 4 5 6 8 8 9 10 9
8 8 9 11 11 10 9 9 11 11 13 11 10 11 12 12 11 10 10 10 10 9 8 8 8 8 8 7 5 5 3 2 1 1 3 4 5 6 6 8 9 9 10
9 9 8 6 9 11 10 10 9 10 11 10 12 10 10 10 8 11 10 10 11 10 8 8 7 6 8 6 5 4 3 2 0 2 3 4 5 7 9 8 8 9 10
8 6 6 6 6 9 10 10 11 10 10 11 11 12 11 6 15 14 12 9 9 9 9 8 8 7 8 8 7 5 3 2 1 2 3 5 6 7 6 7 7 9 8
9 7 7 8 8 8 10 11 11 12 11 11 11 11 10 9 16 16 13 8 9 8 10 9 7 4 5 6 6 6 5 3 3 3 4 6 7 7 7 8 9 10 10
9 9 8 8 10 9 9 10 10 10 11 12 11 10 10 9 17 17 14 8 7 8 9 9 8 9 8 6 5 5 5 5 5 4 6 7 8 7 8 7 8 9 8
11 10 9 9 10 11 11 11 10 10 9 9 9 11 11 11 18 19 13 8 7 7 7 8 8 8 10 9 5 4 3 4 5 9 12 14 14 13 11 6 6 8 9
13 12 11 10 11 11 11 11 8 9 9 7 8 7 10 11 19 19 13 7 8 6 7 7 10 7 11 11 5 4 5 5 4 5 5 9 12 9 12 7 6 7 8
10 11 11 11 11 11 11 7 9 9 9 8 8 6 7 9 12 18 15 7 7 7 7 6 5 13 12 11 11 5 5 4 4 4 6 6 6 7 7 6 6 7 7
10 11 11 11 9 9 12 8 9 10 10 9 9 7 5 5 9 16 17 13 11 7 7 5 5 11 11 12 10 12 9 6 2 4 5 6 6 6 7 7 8 8 8
11 11 11 11 10 10 12 12 10 10 9 9 8 7 6 5 5 13 18 15 14 6 4 6 8 9 11 11 12 10 7 3 4 5 6 6 6 6 8 9 8 9 9
9 10 11 11 9 9 7 8 9 10 9 8 8 7 6 7 6 6 7 8 13 10 8 6 6 7 8 7 3 3 3 4 4 6 6 6 6 7 7 6 7 7 8
8 8 9 7 9 8 6 7 6 6 9 11 9 9 10 8 11 15 13 9 7 7 5 3 5 6 7 6 5 4 4 4 5 5 5 6 6 6 6 6 6 7 8
8 7 7 7 7 7 7 6 3 5 8 7 7 8 5 3 12 21 21 19 16 14 6 6 7 7 7 6 6 6 5 5 5 4 5 6 6 6 6 6 6 7 8
7 8 7 7 7 8 6 7 7 2 5 10 10 13 13 9 13 19 21 20 18 16 7 7 7 7 6 6 6 6 6 5 3 5 6 6 5 5 6 6 6 6 7
4 7 6 6 6 7 7 7 5 7 7 6 13 12 16 15 15 19 20 17 9 13 7 7 7 6 6 7 6 6 6 5 6 6 6 5 4 5 5 6 6 6 7
5 5 5 5 5 6 5 6 7 7 7 5 3 7 11 16 16 17 20 10 8 9 8 8 6 6 6 6 6 6 7 6 5 5 5 5 4 4 5 5 6 6 7
1 3 5 5 5 6 6 7 7 8 7 7 7 7 5 5 9 10 11 10 9 8 7 7 6 6 7 7 7 7 6 7 7 7 6 5 4 5 5 6 5 6 6
1 2 2 4 5 5 6 7 7 6 7 6 6 6 12 9 10 10 10 9 8 8 7 7 6 6 6 7 7 7 7 7 7 7 6 6 5 6 5 6 5 6 6
0 1 2 3 3 4 5 5 6 6 7 7 6 5 15 9 8 8 8 8 7 7 6 6 6 7 7 8 8 8 8 8 7 6 6 5 5 6 5 6 5 6 6
2 2 2 2 3 3 4 5 5 6 7 7 7 6 7 8 8 8 8 7 7 7 6 7 7 7 7 7 7 8 8 8 6 6 6 6 6 6 6 6 6 6 6
2 2 2 3 3 4 5 5 5 7 7 7 7 7 8 8 8 9 8 8 7 6 7 7 7 9 8 8 7 7 7 7 5 6 8 7 7 7 6 7 7 8 7
3 2 2 3 3 4 5 5 6 6 6 6 7 7 7 7 7 7 6 6 6 7 8 7 7 9 12 12 10 10 10 12 10 9 7 9 10 10 8 7 7 7 8
3 3 3 3 4 4 5 5 6 6 6 6 7 7 7 7 7 7 6 7 6 6 7 6 7 10 10 10 11 12 12 13 11 13 9 8 8 8 8 9 10 7 8
Wind_Direction
192 204 207 203 195 197 196 184 170 164 156 149 147 145 146 139 132 131 137 139 131 128 130 130 123 128 116 113 117 111 110 115 238 171 259 332 328 332 336 342 336 332 336
199 177 192 200 172 169 170 158 151 152 150 150 139 142 139 149 141 149 148 144 143 142 141 136 133 126 114 127 121 116 117 111 277 301 298 323 332 338 343 336 344 336 334
183 192 181 185 188 170 148 149 150 146 142 137 140 146 142 152 148 151 146 143 143 144 145 145 140 137 136 131 128 122 118 137 93 310 315 327 331 350 339 348 345 337 331
179 191 200 184 178 173 152 153 149 152 142 141 144 141 139 144 144 140 138 137 134 133 133 138 138 141 147 144 135 126 139 151 148 299 307 317 328 360 339 341 339 338 327
194 182 179 174 158 148 142 142 135 141 140 137 134 133 133 137 145 143 140 139 139 133 134 128 133 139 131 145 145 150 159 153 212 316 309 321 333 340 346 336 330 328 321
193 185 145 143 145 142 138 139 129 127 128 133 137 140 141 138 151 144 138 135 138 146 144 136 141 149 149 149 144 161 153 177 235 293 307 316 316 330 326 331 321 328 328
183 168 160 151 148 146 140 136 139 141 141 140 139 141 139 140 149 145 135 141 144 156 147 154 156 170 170 170 179 183 200 237 256 278 280 290 305 316 312 309 310 308 299
178 164 161 159 150 144 138 143 143 147 151 148 146 143 138 141 155 149 144 135 143 148 157 167 167 174 190 191 194 199 218 226 237 253 268 280 289 298 296 293 294 290 284
181 172 168 163 155 153 155 154 150 146 146 149 148 143 143 149 161 159 146 143 142 158 172 175 174 182 187 203 198 212 243 261 275 282 281 284 284 291 295 300 288 303 302
180 173 169 162 162 163 160 154 150 152 142 138 133 148 149 156 170 166 155 140 153 166 185 186 193 188 190 213 205 210 241 256 263 271 287 287 280 283 288 276 283 286 298
166 157 161 162 166 162 153 147 146 143 138 137 144 141 152 161 169 177 166 163 164 177 188 189 193 202 210 224 230 204 228 242 258 294 297 295 291 284 274 268 272 276 280
156 161 163 160 155 150 147 143 149 147 145 153 149 162 166 157 175 181 185 188 185 186 189 187 189 203 222 233 237 250 243 278 288 291 285 284 282 279 281 286 284 281 271
160 165 163 157 156 159 156 158 156 160 163 160 168 168 174 181 184 200 201 192 202 197 186 186 195 212 227 239 246 259 259 261 266 268 268 271 275 285 286 283 276 275 266
170 165 158 161 161 162 165 168 167 170 167 165 170 175 175 178 192 202 200 196 206 199 195 202 211 222 230 245 223 211 232 250 259 263 270 279 282 274 278 290 294 299 292
156 154 160 162 166 162 169 174 179 188 181 170 182 180 174 188 207 200 187 190 187 191 161 187 205 211 215 214 213 222 235 243 246 255 270 274 274 280 288 300 295 298 289
157 161 167 161 167 169 165 153 148 170 183 186 184 185 191 254 189 196 196 194 193 189 190 208 211 215 216 213 218 222 228 232 243 255 263 267 275 288 298 301 296 293 295
171 169 163 165 168 171 174 180 181 148 206 219 217 212 209 210 197 199 197 195 195 191 212 216 221 213 211 211 215 217 227 224 228 246 255 261 271 284 287 289 294 293 295
142 162 164 170 170 172 178 181 185 191 198 211 224 217 217 214 198 198 195 192 205 211 210 218 217 211 211 210 210 215 220 221 226 236 243 252 260 270 280 286 292 292 295
154 163 163 163 170 174 173 188 199 207 214 205 170 220 212 207 208 208 204 206 206 206 206 217 216 210 206 209 208 211 219 222 222 226 235 236 244 253 263 270 275 283 288
185 153 172 178 175 183 188 198 204 211 212 211 210 211 166 194 203 210 219 214 215 216 210 221 214 211 205 205 204 206 211 211 216 218 227 231 238 248 262 266 273 281 283
215 165 191 186 190 200 204 212 218 219 222 221 222 202 187 199 208 216 212 220 218 216 202 204 208 219 212 206 207 207 214 222 216 217 216 216 222 236 238 253 264 268 270
281 220 210 232 224 219 225 225 224 225 228 232 228 210 215 209 224 225 223 222 217 219 203 202 209 211 209 205 205 210 214 220 223 219 222 218 224 231 241 251 256 259 264
339 303 255 242 242 232 228 235 238 240 242 239 237 220 214 228 222 226 232 227 219 213 211 194 201 209 209 215 209 214 215 221 221 220 217 226 223 229 227 245 249 256 260
359 308 283 271 253 252 254 252 246 244 248 244 238 236 234 231 234 232 229 223 216 211 205 200 204 211 211 217 212 213 220 228 210 214 221 228 234 232 234 234 241 247 254
349 328 298 285 277 267 268 264 266 263 261 257 259 254 250 244 246 244 237 227 220 216 213 208 210 218 224 227 225 221 219 225 220 212 210 221 232 233 229 233 239 249 250
352 337 323 316 300 288 281 280 278 276 271 272 270 269 265 260 257 254 242 229 226 226 224 219 220 223 228 234 237 236 233 224 219 223 218 222 226 232 227 227 230 235 240